When you browse on this site, cookies collect data to enhance your experience and personalize the content and advertising you see.
Visit our Privacy Policy to learn more. By continuing to use the site, you agree to this use of cookies and data.
  • In Romania
  • List of Countries
  • For 7 days
  • Water Temperature
  • Satellite Maps
  • Weather Map
  • Weather Widgets
  • user-avatar
    Login

    Hourly Weather Vozrozhdenie

    Today, 16 January, Wednesday

    Time Temperature Precipitation Wind Pressure Humidity
    00:00 -1°C° 0 mm 2 mps 719 mmHg 84%
    01:00 -1°C° 0 mm 2 mps 718 mmHg 81%
    02:00 +1°C° 0 mm 2 mps 718 mmHg 78%
    03:00 +1°C° 0 mm 1 mps 718 mmHg 81%
    04:00 +2°C° 0 mm 1 mps 718 mmHg 78%
    05:00 +2°C° 0 mm 1 mps 718 mmHg 74%
    06:00 +3°C° 0 mm 1 mps 718 mmHg 70%
    07:00 +4°C° 0 mm 1 mps 718 mmHg 66%
    08:00 +4°C° 0 mm 1 mps 718 mmHg 63%
    09:00 +5°C° 0 mm 1 mps 718 mmHg 59%
    10:00 +6°C° 0 mm 1 mps 718 mmHg 57%
    11:00 +6°C° 0 mm 2 mps 719 mmHg 55%
    12:00 +8°C° 0 mm 2 mps 719 mmHg 54%
    13:00 +5°C° 0 mm 4 mps 720 mmHg 63%
    14:00 +2°C° 0 mm 6 mps 720 mmHg 72%
    15:00 0°C° 0 mm 8 mps 721 mmHg 81%
    16:00 -1°C° 0 mm 7 mps 722 mmHg 81%
    17:00 -2°C° 0 mm 6 mps 723 mmHg 81%
    18:00 -2°C° 0 mm 5 mps 724 mmHg 82%
    19:00 -2°C° 0.1 mm 5 mps 724 mmHg 82%
    20:00 -2°C° 0.1 mm 5 mps 725 mmHg 82%
    21:00 -2°C° 0.1 mm 4 mps 725 mmHg 82%
    22:00 -3°C° 0.1 mm 4 mps 725 mmHg 81%
    23:00 -2°C° 0.1 mm 3 mps 726 mmHg 79%

    Tomorrow, 17 January, Thursday

    Time Temperature Precipitation Wind Pressure Humidity
    00:00 -2°C° 0.1 mm 3 mps 726 mmHg 77%
    01:00 -2°C° 0 mm 2 mps 727 mmHg 77%
    02:00 -2°C° 0 mm 2 mps 727 mmHg 77%
    03:00 -2°C° 0 mm 2 mps 727 mmHg 77%
    04:00 0°C° 0 mm 1 mps 728 mmHg 78%
    05:00 0°C° 0 mm 1 mps 728 mmHg 78%
    06:00 0°C° 0 mm 1 mps 728 mmHg 79%
    07:00 0°C° 0.1 mm 1 mps 729 mmHg 78%
    08:00 0°C° 0.1 mm 1 mps 730 mmHg 77%
    09:00 0°C° 0.1 mm 1 mps 730 mmHg 76%
    10:00 +1°C° 0 mm 1 mps 730 mmHg 73%
    11:00 0°C° 0 mm 0 mps 731 mmHg 69%
    12:00 +1°C° 0 mm 0 mps 731 mmHg 65%
    13:00 +2°C° 0 mm 1 mps 731 mmHg 66%
    14:00 +2°C° 0 mm 1 mps 731 mmHg 66%
    15:00 +1°C° 0 mm 2 mps 731 mmHg 66%
    16:00 -1°C° 0 mm 2 mps 732 mmHg 72%
    17:00 -1°C° 0 mm 2 mps 732 mmHg 77%
    18:00 -2°C° 0 mm 2 mps 733 mmHg 83%
    19:00 0°C° 0 mm 1 mps 733 mmHg 84%
    20:00 -1°C° 0 mm 1 mps 734 mmHg 85%
    21:00 -1°C° 0 mm 1 mps 734 mmHg 85%
    22:00 -1°C° 0 mm 1 mps 734 mmHg 83%
    23:00 0°C° 0 mm 1 mps 735 mmHg 80%

    Day after tomorrow, 18 January, Friday

    Time Temperature Precipitation Wind Pressure Humidity
    00:00 0°C° 0 mm 1 mps 735 mmHg 78%
    01:00 0°C° 0 mm 1 mps 735 mmHg 76%
    02:00 0°C° 0 mm 1 mps 735 mmHg 74%
    03:00 0°C° 0 mm 1 mps 735 mmHg 73%
    04:00 0°C° 0 mm 1 mps 736 mmHg 70%
    05:00 0°C° 0 mm 1 mps 736 mmHg 68%
    06:00 0°C° 0 mm 1 mps 736 mmHg 66%
    07:00 +1°C° 0 mm 1 mps 736 mmHg 63%
    08:00 +1°C° 0 mm 1 mps 736 mmHg 59%
    09:00 +1°C° 0 mm 0 mps 736 mmHg 56%
    10:00 +2°C° 0 mm 0 mps 736 mmHg 52%
    11:00 +3°C° 0 mm 0 mps 735 mmHg 47%
    12:00 +4°C° 0 mm 0 mps 735 mmHg 43%
    13:00 +5°C° 0 mm 1 mps 735 mmHg 46%
    14:00 +5°C° 0 mm 1 mps 734 mmHg 48%
    15:00 +5°C° 0 mm 1 mps 734 mmHg 50%
    16:00 +4°C° 0 mm 1 mps 734 mmHg 56%
    17:00 +3°C° 0 mm 1 mps 735 mmHg 62%
    18:00 -1°C° 0 mm 2 mps 735 mmHg 67%
    19:00 +1°C° 0 mm 1 mps 735 mmHg 67%
    20:00 +1°C° 0 mm 1 mps 735 mmHg 66%
    21:00 +1°C° 0 mm 1 mps 735 mmHg 66%
    22:00 +1°C° 0 mm 1 mps 735 mmHg 64%
    23:00 +1°C° 0 mm 1 mps 734 mmHg 61%

    19 January, Saturday

    Time Temperature Precipitation Wind Pressure Humidity
    00:00 0°C° 0 mm 0 mps 734 mmHg 59%
    01:00 +1°C° 0 mm 1 mps 734 mmHg 57%
    02:00 +1°C° 0 mm 1 mps 734 mmHg 54%
    03:00 +1°C° 0 mm 1 mps 734 mmHg 52%
    04:00 +1°C° 0 mm 1 mps 734 mmHg 49%
    05:00 +1°C° 0 mm 1 mps 734 mmHg 46%
    06:00 +1°C° 0 mm 1 mps 734 mmHg 43%
    07:00 +2°C° 0 mm 1 mps 734 mmHg 40%
    08:00 +2°C° 0 mm 1 mps 734 mmHg 37%
    09:00 +3°C° 0 mm 1 mps 734 mmHg 34%
    10:00 +4°C° 0 mm 1 mps 734 mmHg 31%
    11:00 +6°C° 0 mm 1 mps 734 mmHg 28%
    12:00 +7°C° 0 mm 1 mps 734 mmHg 25%
    13:00 +6°C° 0 mm 0 mps 734 mmHg 29%
    14:00 +6°C° 0 mm 0 mps 734 mmHg 32%
    15:00 +6°C° 0 mm 0 mps 734 mmHg 36%
    16:00 +5°C° 0 mm 0 mps 734 mmHg 38%
    17:00 +4°C° 0 mm 0 mps 734 mmHg 40%
    18:00 +2°C° 0 mm 0 mps 734 mmHg 41%
    19:00 +2°C° 0 mm 0 mps 734 mmHg 42%
    20:00 +3°C° 0 mm 1 mps 734 mmHg 43%
    21:00 +3°C° 0 mm 1 mps 734 mmHg 44%
    22:00 +3°C° 0 mm 1 mps 735 mmHg 44%
    23:00 +3°C° 0 mm 1 mps 735 mmHg 45%

    20 January, Sunday

    Time Temperature Precipitation Wind Pressure Humidity
    00:00 +2°C° 0 mm 0 mps 735 mmHg 45%
    01:00 +2°C° 0 mm 0 mps 735 mmHg 46%
    02:00 +2°C° 0 mm 0 mps 735 mmHg 47%
    03:00 +2°C° 0 mm 0 mps 735 mmHg 47%
    04:00 +2°C° 0 mm 0 mps 735 mmHg 49%
    05:00 +2°C° 0 mm 0 mps 735 mmHg 50%
    06:00 +1°C° 0 mm 0 mps 735 mmHg 51%
    07:00 +2°C° 0 mm 0 mps 736 mmHg 54%
    08:00 +3°C° 0 mm 1 mps 736 mmHg 56%
    09:00 +3°C° 0 mm 1 mps 736 mmHg 58%
    10:00 +4°C° 0 mm 1 mps 736 mmHg 59%
    11:00 +4°C° 0 mm 1 mps 735 mmHg 59%
    12:00 +4°C° 0 mm 2 mps 735 mmHg 59%
    13:00 +4°C° 0 mm 2 mps 735 mmHg 60%
    14:00 +4°C° 0 mm 2 mps 735 mmHg 62%
    15:00 +4°C° 0 mm 2 mps 734 mmHg 63%
    16:00 +3°C° 0 mm 2 mps 735 mmHg 69%
    17:00 +2°C° 0 mm 2 mps 735 mmHg 75%
    18:00 +1°C° 0 mm 2 mps 735 mmHg 81%
    19:00 +1°C° 0 mm 2 mps 735 mmHg 82%
    20:00 -1°C° 0 mm 2 mps 735 mmHg 83%
    21:00 -1°C° 0 mm 2 mps 735 mmHg 85%
    22:00 -1°C° 0 mm 2 mps 735 mmHg 84%
    23:00 -1°C° 0 mm 2 mps 734 mmHg 84%

    21 January, Monday

    Time Temperature Precipitation Wind Pressure Humidity
    00:00 -1°C° 0 mm 2 mps 734 mmHg 83%
    01:00 -1°C° 0 mm 2 mps 734 mmHg 82%
    02:00 -1°C° 0 mm 2 mps 734 mmHg 81%
    03:00 -2°C° 0 mm 2 mps 734 mmHg 81%
    04:00 -1°C° 0 mm 2 mps 733 mmHg 79%
    05:00 -1°C° 0 mm 2 mps 733 mmHg 78%
    06:00 -1°C° 0 mm 2 mps 733 mmHg 76%
    07:00 -1°C° 0 mm 2 mps 733 mmHg 73%
    08:00 -1°C° 0 mm 2 mps 732 mmHg 70%
    09:00 +2°C° 0 mm 1 mps 732 mmHg 67%
    10:00 +2°C° 0 mm 2 mps 732 mmHg 60%
    11:00 +4°C° 0 mm 2 mps 731 mmHg 53%
    12:00 +5°C° 0 mm 2 mps 730 mmHg 46%
    13:00 +6°C° 0 mm 2 mps 730 mmHg 48%
    14:00 +6°C° 0 mm 2 mps 729 mmHg 50%
    15:00 +6°C° 0 mm 2 mps 729 mmHg 52%
    16:00 +5°C° 0 mm 2 mps 729 mmHg 55%
    17:00 +3°C° 0 mm 2 mps 729 mmHg 59%
    18:00 +3°C° 0 mm 1 mps 729 mmHg 63%
    19:00 +3°C° 0 mm 1 mps 729 mmHg 62%
    20:00 +4°C° 0 mm 1 mps 729 mmHg 60%
    21:00 +4°C° 0 mm 1 mps 729 mmHg 58%
    22:00 +2°C° 0 mm 2 mps 729 mmHg 62%
    23:00 +1°C° 0 mm 3 mps 729 mmHg 66%
    Show more